Location: Huesca
(42.1318°N, 0.4078°W)
Time: 18:03:26
(UTC+02:00)

ISS - Visible Passes

Search period start: 25 July 2024 00:00
Search period end: 04 August 2024 00:00
Orbit: 409 x 423 km, 51.6° (Epoch: 25 July)

Date Brightness Start Highest point End Pass type
(mag) Time Alt. Az. Time Alt. Az. Time Alt. Az.
25 Jul -2.8 22:12:58 10° NW 22:16:08 40° NNE 22:19:15 10° E visible
25 Jul -2.1 23:49:54 10° WNW 23:52:08 25° WSW 23:52:08 25° WSW visible
26 Jul -3.2 23:01:01 10° WNW 23:04:13 47° SW 23:05:16 33° S visible
27 Jul -3.8 22:12:16 10° WNW 22:15:36 83° SSW 22:18:25 13° SE visible
28 Jul -1.6 23:01:01 10° W 23:03:17 17° SW 23:04:30 15° SSW visible
29 Jul -2.3 22:11:47 10° WNW 22:14:42 29° SW 22:17:36 10° SSE visible
31 Jul -1.0 22:12:32 10° WSW 22:13:28 11° SW 22:14:25 10° SW visible
